www.pogodaiklimat.ru
ПОГОДА в Дальверзине

Архив погоды в Дальверзине (Сухрандарьинская область, Узбекистан)

Время
и дата
03:10 17.04
03:20 17.04
03:30 17.04
03:40 17.04
03:50 17.04
04:00 17.04
04:10 17.04
04:20 17.04
04:30 17.04
04:40 17.04
04:50 17.04
05:00 17.04
05:10 17.04
05:20 17.04
05:30 17.04
05:40 17.04
05:50 17.04
06:00 17.04
06:10 17.04
06:20 17.04
06:30 17.04
06:40 17.04
06:50 17.04
07:00 17.04
07:10 17.04
07:20 17.04
08:30 17.04
08:50 17.04
10:40 17.04
16:20 17.04
16:40 17.04
16:50 17.04
17:10 17.04
17:20 17.04
17:30 17.04
17:40 17.04
17:50 17.04
18:10 17.04
18:20 17.04
18:30 17.04
18:40 17.04
18:50 17.04
19:10 17.04
19:20 17.04
19:40 17.04
19:50 17.04
20:00 17.04
20:10 17.04
20:20 17.04
20:30 17.04
20:50 17.04
21:00 17.04
21:10 17.04
21:20 17.04
21:30 17.04
21:40 17.04
21:50 17.04
22:00 17.04
22:10 17.04
22:20 17.04
22:30 17.04
22:40 17.04
22:50 17.04
23:00 17.04
23:10 17.04
23:20 17.04
23:30 17.04
23:40 17.04
23:50 17.04
00:00 18.04
00:20 18.04
00:30 18.04
00:50 18.04
01:00 18.04
01:20 18.04
01:30 18.04
01:40 18.04
01:50 18.04
02:10 18.04
02:20 18.04
02:30 18.04
02:50 18.04
03:00 18.04
03:10 18.04
03:30 18.04
03:40 18.04
04:00 18.04
04:10 18.04
04:20 18.04
04:30 18.04
04:40 18.04
04:50 18.04
05:00 18.04
05:50 18.04
06:00 18.04
06:10 18.04
06:20 18.04
06:40 18.04
06:50 18.04
07:00 18.04
07:10 18.04
07:20 18.04
07:40 18.04
07:50 18.04
08:00 18.04
08:10 18.04
08:20 18.04
10:50 18.04
11:30 18.04
12:20 20.04
12:30 20.04
12:50 20.04
13:00 20.04
13:10 20.04
13:20 20.04
13:30 20.04
13:40 20.04
13:50 20.04
14:00 20.04
14:10 20.04
14:20 20.04
14:30 20.04
14:40 20.04
14:50 20.04
15:00 20.04
15:10 20.04
15:20 20.04
15:30 20.04
15:40 20.04
15:50 20.04
16:00 20.04
16:10 20.04
16:20 20.04
16:30 20.04
16:40 20.04
16:50 20.04
17:00 20.04
17:10 20.04
17:20 20.04
17:30 20.04
17:40 20.04
17:50 20.04
18:00 20.04
18:10 20.04
Ветер
(напр.,м/с)
Видимость Явления Солнечная радиация
(Вт/м2)
Т
(С)
Тd
(С)
f
(%)
Тe
(С)
Тes
(С)
Комфортность P
(гПа)
Po
(гПа)
Тmin
(С)
Tmax
(С)
R
(мм)
В 1.2
{1.8}
+12.3 +12.3 100 +12 +12 1022.2 987.6 +12.6 +12.3
В 1.3
{2.2}
+12.1 +12.1 100 +12 +12 1022.2 987.6 +12.3 +12.1
В 1.3
{2.2}
+12.1 +12.1 100 +12 +12 1022.1 987.5 +12.1 +12.0
В 1.5
{2.5}
+12.1 +12.1 100 +11 +11 1022.1 987.5 +12.1 +12.0
В 1.1
{2.1}
+12.0 +12.0 100 +12 +12 1022.0 987.4 +12.1 +12.0
СВ 0.8
{1.4}
+11.6 +11.6 100 +12 +12 1022.0 987.4 +12.0 +11.6
СЗ 0.4
{0.8}
+10.7 +10.7 100 +11 +11 1022.0 987.4 +11.6 +10.7
З 0.3
{0.7}
+10.9 +10.9 100 +12 +12 1022.0 987.4 +10.9 +10.6
СЗ 0.6
{0.9}
+10.7 +10.7 100 +11 +11 1022.1 987.5 +10.9 +10.7
С 0.7
{1.1}
+10.5 +10.5 100 +10 +10 1022.1 987.5 +10.7 +10.5
СВ 0.6
{1.3}
+10.4 +10.4 100 +11 +11 1022.0 987.4 +10.5 +10.4
СВ 1.0
{1.8}
+10.3 +10.3 100 +10 +10 1022.0 987.4 +10.4 +10.3
В 1.4
{2.1}
+11.4 +11.4 100 +11 +11 1022.1 987.5 +11.4 +10.3
В 1.4
{2.4}
+11.8 +11.8 100 +11 +11 1022.4 987.8 +11.8 +11.4
СВ 1.4
{2.4}
+11.9 +11.9 100 +11 +11 1022.4 987.8 +11.9 +11.8
СВ 2.0
{3.4}
+12.5 +12.5 100 +11 +11 1022.5 987.9 +12.5 +11.9
СВ 1.9
{3.2}
+12.9 +12.9 100 +12 +12 1022.4 987.8 +12.9 +12.5
В 1.5
{2.7}
+13.1 +13.1 100 +13 +13 1022.5 987.9 +13.1 +12.9
В 1.6
{3.6}
+13.3 +13.3 100 +13 +13 1022.6 988.0 +13.3 +13.1
В 1.9
{3.6}
+13.5 +13.5 100 +13 +13 1022.5 987.9 +13.5 +13.3
В 1.7
{2.7}
+13.5 +13.5 100 +13 +13 1022.6 988.0 +13.5 +13.4
В 1.5
{2.6}
+13.8 +13.8 100 +13 +13 1022.7 988.1 +13.8 +13.5
В 1.4
{3.5}
+14.4 +14.4 100 +14 +14 1022.8 988.2 +14.4 +13.8
В 1.0
{2.5}
+14.9 +14.9 100 +15 +15 1022.8 988.2 +14.9 +14.4
СВ 0.7
{1.5}
+15.6 +15.6 100 +17 +17 1022.9 988.3 +15.6 +14.9
СВ 0.5
{1.5}
+16.3 +16.3 100 +18 +18 1023.0 988.4 +16.3 +15.6
З 2.5
{3.3}
+16.8 +16.8 100 +17 +17 1022.9 988.3 +17.0 +16.7
З 2.1
{2.8}
+17.8 +17.8 100 +18 +18 1022.9 988.3 +17.8 +17.4
С 3.6
{5.7}
0.2 +21.1 +14.8 67 +24 +24 комфорт 1022.4 987.8 +21.1 +20.6
СЗ 1.9
{3.8}
2.7 +23.9 +9.8 41 +25 +25 комфорт 1017.9 983.4 +24.2 +23.9
СЗ 2.5
{4.5}
2.3 +23.7 +9.4 40 +25 +25 комфорт 1017.6 983.2 +24.0 +23.7
СЗ 2.5
{4.4}
2.3 +23.7 +9.3 40 +25 +25 комфорт 1017.6 983.2 +23.7 +23.7
СЗ 2.5
{3.8}
224.7 +23.8 +10.6 43 +25 +29 комфорт 1017.4 983.0 +23.9 +23.8
СЗ 2.7
{4.5}
542.2 +23.8 +10.9 44 +25 +36 комфорт 1017.4 983.0 +23.9 +23.7
С 2.8
{4.2}
574.1 +23.6 +10.0 42 +25 +36 комфорт 1017.3 982.9 +23.9 +23.6
СЗ 3.1
{4.4}
540.4 +23.4 +10.6 44 +25 +35 комфорт 1017.2 982.8 +23.6 +23.4
СЗ 2.8
{4.2}
495.6 +23.3 +11.4 47 +26 +35 жарко 1017.2 982.8 +23.4 +23.3
СЗ 2.7
{4.3}
430.0 +22.6 +11.5 50 +25 +33 комфорт 1017.2 982.8 +23.0 +22.6
СЗ 2.8
{4.0}
405.6 +22.3 +10.7 48 +24 +32 комфорт 1017.1 982.7 +22.6 +22.3
СЗ 2.6
{3.8}
382.6 +21.9 +11.7 52 +24 +31 комфорт 1017.1 982.7 +22.3 +21.9
СЗ 2.3
{3.1}
361.2 +21.1 +12.9 59 +23 +30 комфорт 1017.1 982.7 +21.9 +21.1
СЗ 1.5
{2.1}
306.8 +20.5 +13.7 65 +24 +31 комфорт 1017.1 982.7 +21.1 +20.5
З 1.6
{2.3}
+19.1 +15.4 79 +21 +21 комфорт 1017.1 982.7 +19.8 +19.1
З 1.4
{1.7}
+18.7 +14.6 77 +20 +20 1017.1 982.7 +19.1 +18.7
СЗ 1.2
{1.6}
+18.1 +13.5 74 +19 +19 1017.0 982.6 +18.4 +18.1
СЗ 0.9
{1.3}
+17.8 +14.4 80 +19 +19 1017.0 982.6 +18.1 +18.0
З 0.4
{0.8}
+17.8 +14.4 80 +20 +20 1017.0 982.6 +18.0 +17.8
З 0.5
{0.8}
+17.6 +13.5 77 +19 +19 1017.1 982.7 +17.8 +17.6
СЗ 0.5
{0.9}
+17.4 +13.9 80 +19 +19 1017.0 982.6 +17.6 +17.4
СЗ 0.4
{0.8}
+17.3 +14.0 81 +19 +19 1017.1 982.7 +17.4 +17.3
ЮЗ 0.7
{1.0}
+17.1 +14.7 86 +18 +18 1017.0 982.6 +17.3 +17.1
ЮЗ 0.7
{1.0}
+16.9 +15.6 92 +18 +18 1017.0 982.6 +17.1 +16.9
Ю 1.2
{1.8}
+16.8 +15.1 89 +18 +18 1017.0 982.6 +16.9 +16.8
ЮВ 1.4
{2.9}
+16.7 +15.2 90 +17 +17 1017.0 982.6 +16.8 +16.7
ЮВ 1.2
{1.4}
+16.5 +15.7 95 +17 +17 1016.9 982.5 +16.7 +16.5
Ю 1.2
{1.6}
+16.2 +16.2 100 +17 +17 1016.8 982.4 +16.5 +16.2
Ю 1.4
{1.9}
+16.3 +15.8 97 +17 +17 1016.8 982.4 +16.3 +16.2
ЮЗ 0.5
{1.6}
+15.4 +15.4 100 +17 +17 1016.8 982.4 +16.3 +15.4
ЮВ 1.2
{1.9}
+15.5 +15.5 100 +16 +16 1016.7 982.3 +15.5 +15.3
В 0.7
{1.3}
+15.3 +15.3 100 +16 +16 1016.7 982.3 +15.5 +15.3
В 1.3
{1.8}
+15.3 +15.3 100 +16 +16 1016.7 982.3 +15.3 +15.3
В 1.4
{2.0}
+15.2 +15.2 100 +15 +15 1016.7 982.3 +15.3 +15.2
В 1.3
{2.1}
+15.3 +15.3 100 +16 +16 1016.6 982.2 +15.3 +15.2
ЮВ 1.1
{1.7}
+15.2 +15.2 100 +16 +16 1016.5 982.1 +15.3 +15.2
ЮВ 1.1
{1.5}
+15.1 +15.1 100 +15 +15 1016.3 981.9 +15.2 +15.1
ЮВ 1.0
{1.8}
+15.0 +15.0 100 +15 +15 1016.3 981.9 +15.1 +15.0
ЮВ 0.9
{1.3}
+14.9 +14.9 100 +15 +15 1016.3 981.9 +15.1 +14.9
ЮВ 0.8
{1.3}
+14.2 +14.2 100 +15 +15 1016.3 981.9 +14.9 +14.1
В 0.8
{1.3}
+14.1 +14.1 100 +15 +15 1016.1 981.7 +14.2 +14.1
В 1.3
{1.8}
+14.3 +14.3 100 +14 +14 1016.0 981.6 +14.3 +14.1
ЮВ 1.0
{1.6}
+14.1 +14.1 100 +14 +14 1015.9 981.5 +14.3 +14.1
В 1.1
{1.3}
+14.0 +14.0 100 +14 +14 1015.7 981.3 +14.1 +14.0
ЮВ 1.3
{1.7}
+14.1 +14.1 100 +14 +14 1015.6 981.2 +14.1 +14.0
ЮВ 1.1
{1.7}
+13.9 +13.9 100 +14 +14 1015.5 981.1 +14.1 +13.9
ЮВ 1.1
{1.5}
+13.8 +13.8 100 +14 +14 1015.3 980.9 +13.9 +13.8
ЮВ 1.3
{1.7}
+13.7 +13.7 100 +13 +13 1015.2 980.8 +13.8 +13.7
ЮВ 1.0
{1.5}
+13.5 +13.5 100 +14 +14 1015.0 980.6 +13.7 +13.5
ЮВ 0.8
{1.3}
+13.2 +13.2 100 +13 +13 1014.9 980.5 +13.5 +13.2
СВ 0.4
{1.4}
+12.5 +12.5 100 +13 +13 1014.7 980.3 +13.0 +12.4
В 0.9
{1.5}
+12.7 +12.7 100 +13 +13 1014.7 980.3 +12.7 +12.5
В 1.0
{1.6}
+12.6 +12.6 100 +12 +12 1014.7 980.3 +12.7 +12.6
В 1.2
{1.8}
+12.8 +12.8 100 +12 +12 1014.6 980.2 +12.8 +12.8
В 0.8
{1.5}
+12.6 +12.6 100 +13 +13 1014.6 980.2 +12.8 +12.6
В 1.2
{2.0}
+12.7 +12.7 100 +12 +12 1014.5 980.1 +12.7 +12.6
СЗ 0.6
{1.1}
+11.1 +11.1 100 +11 +11 1014.5 980.1 +11.9 +11.1
З 1.2
{1.4}
+11.1 +11.1 100 +10 +10 1014.5 980.1 +11.1 +10.9
СЗ 0.9
{2.1}
+11.1 +11.1 100 +11 +11 1014.5 980.1 +11.1 +11.0
СЗ 0.8
{1.5}
+11.0 +11.0 100 +11 +11 1014.4 980.0 +11.1 +11.0
З 0.6
{1.2}
+11.0 +11.0 100 +11 +11 1014.4 980.0 +11.0 +10.9
ЮЗ 0.5
{0.8}
+11.1 +11.1 100 +12 +12 1014.4 980.0 +11.1 +11.0
СЗ 0.4
{0.8}
+11.2 +11.2 100 +12 +12 1014.3 979.9 +11.2 +11.1
Ю 0.3
{0.8}
+11.2 +11.2 100 +12 +12 1014.3 979.9 +11.2 +11.1
ЮВ 0.8
{1.2}
+11.4 +11.4 100 +11 +11 1014.3 979.9 +11.4 +11.2
ЮВ 1.4
{1.9}
+11.5 +11.5 100 +11 +11 1014.3 979.9 +11.6 +11.5
ЮВ 1.3
{1.9}
+11.6 +11.6 100 +11 +11 1014.4 980.0 +11.6 +11.5
ЮВ 0.9
{1.6}
+11.6 +11.6 100 +11 +11 1014.5 980.1 +11.6 +11.6
В 1.0
{1.6}
+11.7 +11.7 100 +11 +11 1014.6 980.2 +11.7 +11.6
В 0.6
{1.1}
+11.9 +11.9 100 +12 +12 1014.7 980.3 +11.9 +11.7
ЮВ 0.8
{1.8}
+12.6 +12.6 100 +13 +13 1014.6 980.2 +12.5 +11.9
Ю 1.3
{2.4}
+13.4 +13.4 100 +13 +13 1014.6 980.2 +13.4 +12.6
Ю 0.6
{1.6}
+14.2 +14.2 100 +15 +15 1014.5 980.1 +14.1 +13.4
З 0.3
{1.2}
+15.0 +15.0 100 +17 +17 1014.6 980.2 +15.0 +14.2
СЗ 1.2
{2.0}
+14.9 +14.9 100 +15 +15 1014.6 980.2 +14.9 +14.7
З 1.7
{2.5}
+15.4 +15.4 100 +15 +15 1014.6 980.2 +15.6 +14.9
З 1.8
{2.8}
+15.9 +15.9 100 +16 +16 1014.5 980.1 +15.9 +15.4
З 1.9
{3.1}
+16.2 +16.2 100 +16 +16 1014.5 980.1 +16.2 +15.8
З 1.4
{2.1}
+16.6 +16.6 100 +17 +17 1014.5 980.1 +16.6 +16.2
З 2.1
{3.6}
3.2 +22.6 +15.8 65 +27 +27 душно 1013.3 979.0 +22.1 +21.8
З 2.0
{3.7}
1254.1 +23.2 +13.5 54 +26 +52 опасность
солнечного
удара
1012.8 978.5 +23.3 +23.1
С 1.2
{2.2}
0.9 +25.4 +14.8 52 +28 +28 жарко 1009.6 975.4 +25.5 +25.1
С 0.9
{1.8}
1.5 +25.8 +13.3 46 +28 +28 жарко 1009.6 975.4 +25.8 +25.4
С 1.2
{2.3}
4.0 +25.9 +12.7 44 +28 +28 жарко 1009.6 975.4 +26.2 +25.8
С 1.2
{2.3}
4.4 +26.0 +11.7 41 +27 +27 жарко 1009.6 975.4 +26.0 +25.9
С 1.3
{2.1}
2.9 +26.2 +12.1 41 +28 +28 жарко 1009.6 975.4 +26.2 +25.9
С 0.9
{1.8}
6.0 +26.7 +11.3 38 +28 +28 жарко 1009.6 975.4 +26.7 +26.2
З 0.7
{1.9}
9.0 +27.0 +12.2 40 +28 +28 жарко 1009.5 975.3 +27.0 +26.7
С 1.2
{2.5}
14.8 +27.1 +9.2 32 +27 +27 жарко 1009.5 975.3 +27.2 +27.0
С 1.2
{2.3}
18.8 +27.8 +8.9 31 +28 +28 жарко 1009.4 975.2 +27.9 +27.1
С 1.2
{2.7}
37.1 +27.8 +10.1 33 +28 +29 жарко 1009.3 975.1 +27.8 +27.6
З 1.3
{2.7}
119.8 +27.5 +11.6 37 +28 +31 жарко 1009.2 975.0 +27.8 +27.3
СЗ 1.7
{3.4}
1242.5 +27.4 +10.9 36 +28 +55 опасность
солнечного
удара
1009.1 974.9 +27.5 +27.4
СЗ 1.6
{3.0}
1831.7 +27.3 +10.7 35 +28 +58 опасность
солнечного
удара
1009.1 974.9 +27.5 +27.3
З 0.9
{2.1}
2047.8 +27.7 +11.3 36 +29 +59 опасность
солнечного
удара
1009.1 974.9 +27.7 +27.2
СЗ 1.2
{2.6}
2220.3 +27.9 +12.6 39 +29 +59 опасность
солнечного
удара
1009.0 974.8 +27.9 +27.7
З 0.9
{2.6}
2305.0 +28.4 +11.5 35 +29 +59 опасность
солнечного
удара
1009.0 974.8 +28.4 +27.9
СЗ 1.6
{3.1}
2348.5 +27.9 +12.8 39 +29 +59 опасность
солнечного
удара
1009.0 974.8 +28.5 +27.9
СЗ 2.6
{3.8}
2457.8 +28.0 +10.9 35 +29 +59 опасность
солнечного
удара
1009.1 974.9 +28.2 +27.9
СЗ 2.8
{3.9}
2447.6 +27.9 +10.8 35 +29 +59 опасность
солнечного
удара
1009.1 974.9 +28.0 +27.8
С 2.6
{3.6}
2246.9 +27.6 +10.9 35 +28 +58 опасность
солнечного
удара
1009.1 974.9 +27.9 +27.6
С 3.0
{4.5}
2089.4 +27.4 +10.9 36 +28 +58 опасность
солнечного
удара
1009.1 974.9 +27.6 +27.4
С 3.1
{4.6}
1914.0 +27.0 +11.4 38 +28 +58 опасность
солнечного
удара
1009.2 975.0 +27.4 +27.0
С 2.4
{3.5}
1678.4 +26.8 +10.6 36 +28 +58 опасность
солнечного
удара
1009.2 975.0 +27.0 +26.8
СЗ 1.9
{2.7}
1501.8 +26.8 +11.3 38 +28 +58 опасность
солнечного
удара
1009.2 975.0 +26.8 +26.7
СЗ 1.6
{2.2}
1385.1 +27.0 +10.9 37 +28 +58 опасность
солнечного
удара
1009.2 975.0 +27.0 +26.8
СЗ 1.7
{2.5}
1306.2 +26.8 +12.4 41 +28 +56 опасность
солнечного
удара
1009.2 975.0 +27.1 +26.8
З 2.0
{2.8}
1328.3 +26.2 +12.0 41 +28 +56 опасность
солнечного
удара
1009.3 975.1 +26.8 +26.2
З 1.6
{2.5}
1269.1 +26.0 +12.9 44 +28 +55 опасность
солнечного
удара
1009.3 975.1 +26.2 +26.0
З 1.6
{2.3}
1206.9 +25.9 +14.4 49 +28 +54 опасность
солнечного
удара
1009.3 975.1 +26.0 +25.9
З 1.6
{2.1}
1098.1 +25.5 +14.4 50 +28 +52 опасность
солнечного
удара
1009.3 975.1 +25.9 +25.5
З 1.5
{2.0}
1020.6 +25.4 +14.4 51 +28 +50 жарко 1009.3 975.1 +25.5 +25.4
З 1.3
{1.7}
892.4 +25.3 +14.3 50 +28 +48 жарко 1009.4 975.2 +25.4 +25.3
З 1.2
{1.8}
796.5 +25.2 +14.3 51 +28 +46 жарко 1009.4 975.2 +25.3 +25.2
З 1.2
{1.5}
616.1 +25.1 +14.8 53 +28 +42 жарко 1009.4 975.2 +25.2 +25.1
З 1.3
{1.8}
500.6 +24.8 +15.3 56 +28 +39 жарко 1009.5 975.3 +25.1 +24.8
Местоположение метеостанции Дальверзин (Сухрандарьинская область, Узбекистан): широта 40.41 долгота 69.28 высота над уровнем моря 0 м.
В архиве по умолчанию представлена погода в Дальверзине за последние 1-2 суток. Обновление информации о фактической погоде в базе происходит ежечасно! Архивные данные за месяц целиком и за предыдущие месяцы Вы можете получить, выбрав интересующий диапазон дат из раскрывающегося списка и нажав кнопку "Ввод!".
*Определитесь, кто Вы:
Внимание! Время в таблицах - местное (без учета летнего времени). Для получения всемирного времени необходимо вычесть поправку, которая равна 5 ч.
Смотрите также архив погоды на ближайших метеорологических станциях:
Партнеры нашего сайта:      
Пояснения к столбцам:
  • Ветер - указаны скорость ветра в м/с - средняя за 10 мин, порывы в срок и между сроками (в фигурных скобках) и направление, откуда дует ветер: С - северный,
  • СВ - северо-восточный, В - восточный, ЮВ - юго-восточный, Ю - южный, ЮЗ - юго-западный, З - западный, СЗ - северо-западный.
  • Видимость - горизонтальная дальность видимости в метрах или километрах. При видимости от 1 до 10 км при отсутствии осадков обычно наблюдается дымка, при ухудшении видимости до 1 км и менее - туман. В сухую погоду видимость может ухудшаться дымом, пылью или мглою.
  • Явления - указаны атмосферные явления, наблюдавшиеся в срок или в последний час перед сроком.
  • Солнечная радиация - мощность потока солнечного излучения на поверхность земли и предметов в Вт/м2.
  • T - Температура воздуха - температура, измеренная на высоте 2 м над землей.
  • Td - Температура точки росы - температура, при понижении до которой содержащийся в воздухе водяной пар достигнет насыщения.
  • f - Относительная влажность воздуха - влажноcть воздуха, измеренная на высоте 2 м над землей.
  • Te - Эффективная температура - температура, которую ощущает одетый по сезону человек в тени. Характеристика душности погоды. При расчете учитывается влияние влажности воздуха и скорости ветра на теплоощущения человека.
  • Tes - Эффективная температура на солнце - температура, которую ощущает человек, с поправкой на солнечный нагрев. Характеристика знойности погоды. Зависит от высоты солнца над горизонтом, облачности и скорости ветра. Ночью, в пасмурную погоду, а также при ветре 12 м/с и более поправка равна нулю.
  • P - Атмосферное давление - приведенное к уровню моря атмосферное давление.
  • Po - Атмосферное давление - измеренное на уровне метеостанции атмосферное давление.
  • Tmin - Минимальная температура - минимум температуры воздуха на высоте 2 м над землей.
  • Tmax - Максимальная температура - максимум температуры воздуха на высоте 2 м над землей.
  • R - Количество осадков - Количество выпавших осадков за период времени, мм. При наведении курсора мыши на число - период времени, за который выпало указанное количество осадков.